| time (UTC) | temp F | wind direction | speed MPH | gust MPH | rain 1hr in | rain 24hr in | rain mn in | humidity % | barometer mb |
| 20260901110826 | 73 | 24 | 136.0 | 137.0 | 0.00 | 0.27 | 0.00 | 86 | 1015.0 |
| 20260901110328 | 73 | 25 | 136.0 | 137.0 | 0.00 | 0.27 | 0.00 | 85 | 1014.9 |
| 20260901105837 | 73 | 25 | 136.0 | 137.0 | 0.00 | 0.27 | 0.00 | 85 | 1014.9 |
| 20260901105346 | 73 | 26 | 136.0 | 137.0 | 0.00 | 0.27 | 0.00 | 85 | 1014.7 |
| 20260901104827 | 73 | 24 | 136.0 | 137.0 | 0.00 | 0.27 | 0.00 | 85 | 1014.6 |
| 20260901104329 | 73 | 25 | 136.0 | 137.0 | 0.00 | 0.27 | 0.00 | 85 | 1014.7 |
| 20260901103836 | 73 | 24 | 136.0 | 137.0 | 0.00 | 0.27 | 0.00 | 85 | 1014.7 |
| 20260901103317 | 73 | 23 | 136.0 | 137.0 | 0.00 | 0.27 | 0.00 | 85 | 1014.8 |
| 20260901102819 | 73 | 24 | 136.0 | 137.0 | 0.00 | 0.27 | 0.00 | 85 | 1014.7 |
| 20260901102327 | 73 | 23 | 136.0 | 136.0 | 0.00 | 0.27 | 0.00 | 85 | 1014.7 |
| 20260901101829 | 73 | 24 | 136.0 | 136.0 | 0.00 | 0.27 | 0.00 | 85 | 1014.8 |
| 20260901101331 | 73 | 24 | 136.0 | 136.0 | 0.00 | 0.27 | 0.00 | 85 | 1014.9 |
| 20260901100813 | 73 | 288 | 137.0 | 139.0 | 0.00 | 0.27 | 0.00 | 85 | 1014.7 |
| 20260901100322 | 73 | 360 | 138.0 | 139.0 | 0.00 | 0.27 | 0.00 | 85 | 1014.8 |
| 20260901095822 | 73 | 279 | 138.0 | 140.0 | 0.00 | 0.27 | 0.00 | 85 | 1014.7 |
| 20260901095352 | 73 | 279 | 137.0 | 139.0 | 0.00 | 0.27 | 0.00 | 85 | 1014.8 |
| 20260901094834 | 73 | 246 | 136.0 | 138.0 | 0.00 | 0.27 | 0.00 | 85 | 1014.8 |
| 20260901094322 | 73 | 242 | 136.0 | 138.0 | 0.00 | 0.27 | 0.00 | 85 | 1014.7 |
| 20260901093843 | 73 | 360 | 43.0 | 138.0 | 0.00 | 0.27 | 0.00 | 85 | 1014.8 |
| 20260901093329 | 73 | 360 | 0.0 | 32.0 | 0.00 | 0.27 | 0.00 | 85 | 1014.8 |
| 20260901092831 | 73 | 242 | 0.0 | 2.0 | 0.00 | 0.27 | 0.00 | 85 | 1014.8 |
| 20260901092318 | 73 | 242 | 0.0 | 2.0 | 0.00 | 0.27 | 0.00 | 85 | 1014.7 |
| 20260901091817 | 73 | 243 | 0.0 | 2.0 | 0.00 | 0.27 | 0.00 | 85 | 1014.8 |
| 20260901091320 | 73 | 244 | 0.0 | 2.0 | 0.00 | 0.27 | 0.00 | 85 | 1014.7 |
| 20260901090828 | 73 | 244 | 0.0 | 2.0 | 0.00 | 0.27 | 0.00 | 85 | 1014.7 |
| 20260901090330 | 73 | 360 | 0.0 | 3.0 | 0.00 | 0.27 | 0.00 | 85 | 1014.6 |
| 20260901085837 | 73 | 360 | 1.0 | 3.0 | 0.00 | 0.27 | 0.00 | 85 | 1014.8 |
| 20260901085319 | 73 | 350 | 0.0 | 3.0 | 0.00 | 0.27 | 0.00 | 85 | 1014.7 |
| 20260901084821 | 73 | 350 | 0.0 | 3.0 | 0.00 | 0.27 | 0.00 | 85 | 1014.8 |
| 20260901084323 | 73 | 360 | 0.0 | 1.0 | 0.00 | 0.27 | 0.00 | 85 | 1014.7 |
| 20260901083829 | 73 | 350 | 0.0 | 1.0 | 0.00 | 0.27 | 0.00 | 85 | 1014.8 |
| 20260901083319 | 73 | 350 | 0.0 | 2.0 | 0.00 | 0.27 | 0.00 | 85 | 1014.7 |
| 20260901082819 | 73 | 360 | 0.0 | 2.0 | 0.00 | 0.27 | 0.00 | 85 | 1014.6 |
| 20260901082321 | 73 | 346 | 1.0 | 2.0 | 0.00 | 0.27 | 0.00 | 85 | 1014.6 |
| 20260901081846 | 73 | 273 | 1.0 | 2.0 | 0.00 | 0.27 | 0.00 | 85 | 1014.6 |
| 20260901081329 | 73 | 231 | 0.0 | 2.0 | 0.00 | 0.27 | 0.00 | 85 | 1014.6 |
| 20260901080814 | 73 | 224 | 1.0 | 3.0 | 0.00 | 0.27 | 0.00 | 85 | 1014.7 |
| 20260901080322 | 73 | 96 | 0.0 | 3.0 | 0.00 | 0.27 | 0.00 | 85 | 1014.7 |
| 20260901075824 | 73 | 210 | 0.0 | 3.0 | 0.00 | 0.27 | 0.00 | 85 | 1014.7 |
| 20260901075334 | 73 | 223 | 0.0 | 3.0 | 0.00 | 0.27 | 0.00 | 85 | 1014.7 |
| 20260901074814 | 73 | 360 | 1.0 | 3.0 | 0.00 | 0.27 | 0.00 | 85 | 1014.7 |
| 20260901074313 | 73 | 360 | 1.0 | 3.0 | 0.00 | 0.27 | 0.00 | 85 | 1014.8 |
| 20260901073821 | 73 | 163 | 0.0 | 0.0 | 0.00 | 0.27 | 0.00 | 85 | 1014.8 |
| 20260901073323 | 73 | 115 | 0.0 | 0.0 | 0.00 | 0.27 | 0.00 | 85 | 1014.8 |
| 20260901072832 | 73 | 115 | 0.0 | 0.0 | 0.00 | 0.27 | 0.00 | 85 | 1014.7 |
| 20260901072335 | 73 | 137 | 0.0 | 0.0 | 0.00 | 0.27 | 0.00 | 85 | 1014.7 |
| 20260901071815 | 73 | 190 | 0.0 | 0.0 | 0.00 | 0.27 | 0.00 | 85 | 1014.6 |
| 20260901071341 | 73 | 78 | 0.0 | 0.0 | 0.00 | 0.27 | 0.00 | 85 | 1014.6 |
| 20260901070821 | 73 | 80 | 0.0 | 0.0 | 0.00 | 0.27 | 0.00 | 85 | 1014.6 |
| 20260901070313 | 73 | 100 | 0.0 | 0.0 | 0.00 | 0.27 | 0.00 | 85 | 1014.5 |
| 20260901065814 | 73 | 5 | 0.0 | 0.0 | 0.00 | 0.27 | 0.00 | 85 | 1014.4 |
| 20260901065316 | 73 | 5 | 0.0 | 0.0 | 0.00 | 0.27 | 0.00 | 85 | 1014.4 |
| 20260901064842 | 73 | 5 | 0.0 | 1.0 | 0.00 | 0.27 | 0.00 | 85 | 1014.6 |
| 20260901064324 | 73 | 360 | 0.0 | 1.0 | 0.00 | 0.27 | 0.00 | 84 | 1014.4 |
| 20260901063816 | 73 | 177 | 0.0 | 2.0 | 0.00 | 0.27 | 0.00 | 84 | 1014.6 |
| 20260901063313 | 73 | 360 | 1.0 | 2.0 | 0.00 | 0.27 | 0.00 | 84 | 1014.4 |
| 20260901062822 | 73 | 70 | 0.0 | 2.0 | 0.00 | 0.27 | 0.00 | 84 | 1014.6 |
| 20260901062324 | 73 | 70 | 0.0 | 2.0 | 0.00 | 0.27 | 0.00 | 84 | 1014.5 |
| 20260901061826 | 73 | 72 | 1.0 | 2.0 | 0.00 | 0.27 | 0.00 | 84 | 1014.6 |
| 20260901061319 | 73 | 69 | 0.0 | 1.0 | 0.00 | 0.27 | 0.00 | 84 | 1014.7 |
| 20260901060820 | 73 | 69 | 0.0 | 2.0 | 0.00 | 0.27 | 0.00 | 84 | 1014.7 |
| 20260901060345 | 73 | 69 | 1.0 | 2.0 | 0.00 | 0.27 | 0.00 | 83 | 1014.7 |
| 20260901055825 | 73 | 73 | 0.0 | 2.0 | 0.00 | 0.27 | 0.00 | 84 | 1014.7 |
| 20260901055327 | 73 | 115 | 0.0 | 0.0 | 0.00 | 0.27 | 0.00 | 83 | 1014.7 |
| 20260901054813 | 73 | 115 | 0.0 | 0.0 | 0.00 | 0.27 | 0.00 | 83 | 1014.8 |
| 20260901054320 | 73 | 111 | 0.0 | 1.0 | 0.00 | 0.27 | 0.00 | 83 | 1014.9 |
| 20260901053821 | 74 | 207 | 0.0 | 1.0 | 0.00 | 0.27 | 0.00 | 83 | 1014.8 |
| 20260901053329 | 74 | 209 | 0.0 | 2.0 | 0.00 | 0.27 | 0.00 | 83 | 1014.9 |
| 20260901052831 | 74 | 207 | 0.0 | 2.0 | 0.00 | 0.27 | 0.00 | 83 | 1014.9 |
| 20260901052324 | 74 | 209 | 0.0 | 2.0 | 0.00 | 0.27 | 0.00 | 83 | 1015.0 |
| 20260901051814 | 74 | 172 | 0.0 | 2.0 | 0.00 | 0.27 | 0.00 | 83 | 1014.9 |
| 20260901051335 | 74 | 172 | 0.0 | 2.0 | 0.00 | 0.27 | 0.00 | 82 | 1014.8 |
| 20260901050821 | 74 | 179 | 0.0 | 1.0 | 0.00 | 0.27 | 0.00 | 82 | 1014.8 |
| 20260901050323 | 74 | 210 | 0.0 | 2.0 | 0.00 | 0.27 | 0.00 | 82 | 1014.8 |
| 20260901045827 | 74 | 211 | 0.0 | 2.0 | 0.00 | 0.27 | 0.00 | 82 | 1014.9 |
| 20260901045335 | 74 | 216 | 1.0 | 2.0 | 0.00 | 0.27 | 0.00 | 82 | 1014.9 |
| 20260901044818 | 74 | 189 | 1.0 | 2.0 | 0.00 | 0.27 | 0.00 | 82 | 1014.9 |
| 20260901044321 | 74 | 177 | 0.0 | 1.0 | 0.00 | 0.27 | 0.00 | 82 | 1014.9 |
| 20260901043829 | 74 | 177 | 0.0 | 3.0 | 0.00 | 0.27 | 0.00 | 82 | 1014.9 |
| 20260901043331 | 74 | 176 | 0.0 | 3.0 | 0.00 | 0.27 | 0.00 | 82 | 1014.9 |
| 20260901042813 | 74 | 80 | 0.0 | 2.0 | 0.00 | 0.27 | 0.00 | 81 | 1014.9 |
| 20260901042315 | 74 | 205 | 1.0 | 1.0 | 0.00 | 0.27 | 0.00 | 81 | 1015.0 |
| 20260901041844 | 74 | 211 | 0.0 | 1.0 | 0.00 | 0.27 | 0.00 | 81 | 1015.0 |
| 20260901041332 | 74 | 221 | 0.0 | 2.0 | 0.00 | 0.27 | 0.00 | 81 | 1014.9 |
| 20260901040813 | 74 | 220 | 0.0 | 3.0 | 0.00 | 0.27 | 0.27 | 81 | 1015.0 |
| 20260901040315 | 74 | 217 | 1.0 | 3.0 | 0.00 | 0.27 | 0.27 | 82 | 1014.9 |
| 20260901035817 | 74 | 223 | 1.0 | 3.0 | 0.00 | 0.27 | 0.27 | 82 | 1014.9 |
| 20260901035347 | 74 | 219 | 0.0 | 3.0 | 0.00 | 0.27 | 0.27 | 81 | 1014.9 |
| 20260901034836 | 74 | 286 | 0.0 | 1.0 | 0.00 | 0.27 | 0.27 | 81 | 1015.0 |
| 20260901034318 | 74 | 285 | 0.0 | 1.0 | 0.00 | 0.27 | 0.27 | 81 | 1015.1 |
| 20260901033819 | 74 | 284 | 0.0 | 1.0 | 0.00 | 0.27 | 0.27 | 81 | 1015.2 |
| 20260901033349 | 74 | 248 | 0.0 | 2.0 | 0.00 | 0.27 | 0.27 | 81 | 1015.3 |
| 20260901032854 | 74 | 248 | 0.0 | 2.0 | 0.00 | 0.27 | 0.27 | 81 | 1015.2 |
| 20260901032318 | 74 | 217 | 0.0 | 2.0 | 0.00 | 0.27 | 0.27 | 81 | 1015.2 |
| 20260901031819 | 74 | 218 | 0.0 | 2.0 | 0.00 | 0.27 | 0.27 | 81 | 1015.3 |
| 20260901031329 | 74 | 229 | 0.0 | 3.0 | 0.00 | 0.27 | 0.27 | 81 | 1015.2 |
| 20260901030845 | 74 | 215 | 1.0 | 3.0 | 0.00 | 0.27 | 0.27 | 81 | 1015.2 |
| 20260901030333 | 74 | 213 | 1.0 | 3.0 | 0.00 | 0.27 | 0.27 | 81 | 1015.2 |
| 20260901025836 | 74 | 201 | 1.0 | 4.0 | 0.00 | 0.27 | 0.27 | 81 | 1015.2 |
| 20260901025317 | 75 | 207 | 0.0 | 4.0 | 0.00 | 0.27 | 0.27 | 80 | 1015.2 |
| 20260901024826 | 75 | 216 | 0.0 | 2.0 | 0.00 | 0.27 | 0.27 | 80 | 1015.3 |
| 20260901024313 | 75 | 214 | 1.0 | 5.0 | 0.00 | 0.27 | 0.27 | 80 | 1015.3 |
| 20260901023837 | 75 | 211 | 0.0 | 5.0 | 0.00 | 0.27 | 0.27 | 80 | 1015.3 |
| 20260901023317 | 75 | 237 | 2.0 | 5.0 | 0.00 | 0.27 | 0.27 | 79 | 1015.3 |
| 20260901022819 | 75 | 220 | 3.0 | 7.0 | 0.00 | 0.27 | 0.27 | 80 | 1015.3 |
| 20260901022327 | 75 | 220 | 3.0 | 7.0 | 0.00 | 0.27 | 0.27 | 80 | 1015.3 |
| 20260901021813 | 75 | 216 | 1.0 | 4.0 | 0.00 | 0.27 | 0.27 | 80 | 1015.2 |
| 20260901021316 | 75 | 186 | 1.0 | 5.0 | 0.00 | 0.27 | 0.27 | 80 | 1015.2 |
| 20260901020824 | 75 | 226 | 1.0 | 5.0 | 0.00 | 0.27 | 0.27 | 80 | 1015.1 |
| 20260901020326 | 75 | 206 | 3.0 | 5.0 | 0.00 | 0.27 | 0.27 | 80 | 1014.9 |
| 20260901015827 | 75 | 209 | 2.0 | 4.0 | 0.00 | 0.27 | 0.27 | 80 | 1014.9 |
| 20260901015332 | 75 | 200 | 1.0 | 5.0 | 0.00 | 0.27 | 0.27 | 80 | 1015.0 |
| 20260901014813 | 75 | 226 | 2.0 | 5.0 | 0.00 | 0.27 | 0.27 | 80 | 1015.0 |
| 20260901014315 | 75 | 223 | 2.0 | 5.0 | 0.00 | 0.27 | 0.27 | 80 | 1015.0 |
| 20260901013823 | 75 | 213 | 2.0 | 4.0 | 0.00 | 0.27 | 0.27 | 80 | 1015.0 |
| 20260901013346 | 75 | 222 | 1.0 | 4.0 | 0.00 | 0.27 | 0.27 | 80 | 1015.0 |
| 20260901012833 | 75 | 213 | 2.0 | 4.0 | 0.00 | 0.27 | 0.27 | 80 | 1015.0 |
| 20260901012335 | 75 | 215 | 1.0 | 4.0 | 0.00 | 0.27 | 0.27 | 80 | 1014.8 |
| 20260901011823 | 75 | 190 | 1.0 | 6.0 | 0.00 | 0.27 | 0.27 | 80 | 1014.6 |
| 20260901011326 | 75 | 250 | 2.0 | 6.0 | 0.00 | 0.27 | 0.27 | 80 | 1014.6 |
| 20260901010826 | 75 | 199 | 1.0 | 5.0 | 0.00 | 0.27 | 0.27 | 80 | 1014.3 |
| 20260901010335 | 75 | 277 | 3.0 | 7.0 | 0.00 | 0.27 | 0.27 | 80 | 1014.3 |
| 20260901005837 | 75 | 201 | 3.0 | 7.0 | 0.00 | 0.27 | 0.27 | 80 | 1014.3 |
| 20260901005325 | 74 | 195 | 1.0 | 8.0 | 0.00 | 0.27 | 0.27 | 80 | 1014.2 |
| 20260901004825 | 74 | 172 | 1.0 | 8.0 | 0.00 | 0.27 | 0.27 | 80 | 1014.1 |
| 20260901004328 | 74 | 229 | 3.0 | 8.0 | 0.00 | 0.27 | 0.27 | 80 | 1014.1 |
| 20260901003836 | 74 | 231 | 2.0 | 6.0 | 0.00 | 0.27 | 0.27 | 80 | 1014.1 |
| 20260901003337 | 74 | 180 | 2.0 | 4.0 | 0.00 | 0.27 | 0.27 | 80 | 1014.0 |
| 20260901002818 | 75 | 211 | 1.0 | 2.0 | 0.00 | 0.27 | 0.27 | 80 | 1014.0 |
| 20260901002327 | 75 | 184 | 1.0 | 5.0 | 0.00 | 0.27 | 0.27 | 80 | 1014.3 |
| 20260901001852 | 75 | 207 | 1.0 | 5.0 | 0.00 | 0.27 | 0.27 | 80 | 1014.2 |
| 20260901001334 | 75 | 201 | 1.0 | 8.0 | 0.00 | 0.27 | 0.27 | 80 | 1014.2 |
| 20260901000841 | 74 | 220 | 3.0 | 8.0 | 0.00 | 0.27 | 0.27 | 80 | 1014.7 |
| 20260901000322 | 74 | 238 | 3.0 | 8.0 | 0.00 | 0.27 | 0.27 | 81 | 1014.8 |
| 20260831235832 | 74 | 217 | 3.0 | 6.0 | 0.00 | 0.27 | 0.27 | 80 | 1014.9 |
| 20260831235312 | 74 | 216 | 2.0 | 6.0 | 0.00 | 0.27 | 0.27 | 80 | 1014.9 |
| 20260831234833 | 74 | 180 | 2.0 | 6.0 | 0.00 | 0.27 | 0.27 | 80 | 1014.7 |
| 20260831234343 | 74 | 202 | 2.0 | 9.0 | 0.00 | 0.27 | 0.27 | 80 | 1014.4 |
| 20260831233823 | 75 | 146 | 2.0 | 9.0 | 0.00 | 0.27 | 0.27 | 80 | 1014.4 |
| 20260831233332 | 75 | 178 | 2.0 | 5.0 | 0.00 | 0.27 | 0.27 | 79 | 1014.3 |
| 20260831232834 | 75 | 217 | 2.0 | 4.0 | 0.00 | 0.27 | 0.27 | 79 | 1014.2 |
| 20260831232322 | 75 | 17 | 1.0 | 6.0 | 0.00 | 0.27 | 0.27 | 79 | 1014.2 |
| 20260831231824 | 75 | 188 | 1.0 | 6.0 | 0.00 | 0.27 | 0.27 | 79 | 1014.2 |
| 20260831231327 | 75 | 178 | 2.0 | 8.0 | 0.00 | 0.27 | 0.27 | 79 | 1014.1 |
| 20260831230834 | 75 | 177 | 2.0 | 8.0 | 0.00 | 0.27 | 0.27 | 79 | 1014.2 |
| 20260831230316 | 75 | 245 | 2.0 | 5.0 | 0.00 | 0.27 | 0.27 | 80 | 1014.1 |
| 20260831225818 | 75 | 194 | 2.0 | 4.0 | 0.00 | 0.27 | 0.27 | 80 | 1014.1 |
| 20260831225347 | 75 | 19 | 2.0 | 4.0 | 0.00 | 0.27 | 0.27 | 80 | 1014.1 |
| 20260831224827 | 74 | 200 | 1.0 | 4.0 | 0.00 | 0.27 | 0.27 | 80 | 1014.2 |
| 20260831224336 | 75 | 175 | 1.0 | 2.0 | 0.00 | 0.27 | 0.27 | 80 | 1014.1 |
| 20260831223818 | 75 | 194 | 1.0 | 2.0 | 0.00 | 0.27 | 0.27 | 79 | 1014.2 |
| 20260831223319 | 75 | 189 | 1.0 | 5.0 | 0.00 | 0.27 | 0.27 | 79 | 1014.3 |
| 20260831222849 | 75 | 164 | 2.0 | 5.0 | 0.00 | 0.27 | 0.27 | 79 | 1014.4 |
| 20260831222329 | 75 | 202 | 2.0 | 5.0 | 0.00 | 0.27 | 0.27 | 79 | 1014.4 |
| 20260831221812 | 75 | 251 | 2.0 | 5.0 | 0.00 | 0.27 | 0.27 | 79 | 1014.3 |
| 20260831221322 | 75 | 219 | 2.0 | 6.0 | 0.00 | 0.27 | 0.27 | 79 | 1014.2 |
| 20260831220823 | 75 | 240 | 2.0 | 6.0 | 0.00 | 0.27 | 0.27 | 79 | 1014.2 |
| 20260831220325 | 75 | 169 | 1.0 | 5.0 | 0.00 | 0.27 | 0.27 | 79 | 1014.1 |
| 20260831215815 | 75 | 186 | 2.0 | 6.0 | 0.00 | 0.27 | 0.27 | 78 | 1014.2 |
| 20260831215316 | 75 | 175 | 1.0 | 6.0 | 0.00 | 0.27 | 0.27 | 78 | 1014.2 |
| 20260831214817 | 75 | 210 | 2.0 | 5.0 | 0.00 | 0.27 | 0.27 | 78 | 1014.3 |
| 20260831214327 | 76 | 242 | 2.0 | 5.0 | 0.00 | 0.27 | 0.27 | 77 | 1014.3 |
| 20260831213812 | 76 | 211 | 2.0 | 6.0 | 0.00 | 0.27 | 0.27 | 77 | 1014.3 |
| 20260831213314 | 76 | 227 | 2.0 | 6.0 | 0.00 | 0.27 | 0.27 | 77 | 1014.3 |
| 20260831212823 | 76 | 218 | 2.0 | 7.0 | 0.00 | 0.27 | 0.27 | 77 | 1014.2 |
| 20260831212325 | 76 | 231 | 2.0 | 7.0 | 0.00 | 0.27 | 0.27 | 77 | 1014.1 |
| 20260831211826 | 77 | 204 | 2.0 | 7.0 | 0.00 | 0.27 | 0.27 | 75 | 1014.0 |
| 20260831211335 | 77 | 185 | 2.0 | 7.0 | 0.00 | 0.27 | 0.27 | 75 | 1014.0 |
| 20260831210816 | 78 | 196 | 2.0 | 7.0 | 0.00 | 0.27 | 0.27 | 74 | 1014.0 |
| 20260831210338 | 78 | 200 | 2.0 | 9.0 | 0.00 | 0.27 | 0.27 | 74 | 1014.1 |
| 20260831205841 | 78 | 236 | 3.0 | 9.0 | 0.00 | 0.27 | 0.27 | 73 | 1014.1 |
| 20260831205329 | 78 | 201 | 3.0 | 8.0 | 0.00 | 0.27 | 0.27 | 74 | 1014.0 |
| 20260831204814 | 78 | 204 | 2.0 | 8.0 | 0.00 | 0.27 | 0.27 | 74 | 1014.1 |
| 20260831204316 | 79 | 196 | 2.0 | 6.0 | 0.00 | 0.27 | 0.27 | 74 | 1014.1 |
| 20260831203817 | 78 | 212 | 3.0 | 8.0 | 0.00 | 0.27 | 0.27 | 74 | 1014.1 |
| 20260831203342 | 78 | 182 | 4.0 | 10.0 | 0.00 | 0.27 | 0.27 | 74 | 1014.0 |
| 20260831202831 | 78 | 211 | 2.0 | 10.0 | 0.00 | 0.27 | 0.27 | 74 | 1013.9 |
| 20260831202351 | 78 | 201 | 4.0 | 10.0 | 0.00 | 0.27 | 0.27 | 73 | 1014.0 |
| 20260831201813 | 78 | 205 | 3.0 | 8.0 | 0.00 | 0.27 | 0.27 | 75 | 1014.0 |
| 20260831201323 | 78 | 267 | 3.0 | 7.0 | 0.00 | 0.27 | 0.27 | 74 | 1014.0 |
| 20260831200823 | 78 | 178 | 2.0 | 5.0 | 0.00 | 0.27 | 0.27 | 75 | 1014.0 |
| 20260831200325 | 78 | 257 | 2.0 | 6.0 | 0.00 | 0.27 | 0.27 | 75 | 1014.1 |
| 20260831195818 | 78 | 231 | 3.0 | 6.0 | 0.00 | 0.27 | 0.27 | 76 | 1014.1 |
| 20260831195320 | 77 | 212 | 2.0 | 7.0 | 0.00 | 0.27 | 0.27 | 76 | 1014.1 |
| 20260831194821 | 77 | 219 | 3.0 | 7.0 | 0.00 | 0.27 | 0.27 | 76 | 1014.2 |
| 20260831194330 | 77 | 245 | 3.0 | 6.0 | 0.00 | 0.27 | 0.27 | 77 | 1014.4 |
| 20260831193811 | 77 | 221 | 2.0 | 6.0 | 0.00 | 0.27 | 0.27 | 78 | 1014.4 |
| 20260831193314 | 76 | 224 | 2.0 | 8.0 | 0.00 | 0.27 | 0.27 | 79 | 1014.4 |
| 20260831192822 | 76 | 230 | 1.0 | 10.0 | 0.00 | 0.27 | 0.27 | 80 | 1014.4 |
| 20260831192324 | 76 | 168 | 3.0 | 10.0 | 0.00 | 0.27 | 0.27 | 80 | 1014.5 |
| 20260831191826 | 75 | 107 | 3.0 | 7.0 | 0.00 | 0.27 | 0.27 | 81 | 1014.4 |
| 20260831191336 | 75 | 154 | 2.0 | 7.0 | 0.00 | 0.27 | 0.27 | 82 | 1014.2 |
| 20260831190817 | 74 | 265 | 2.0 | 7.0 | 0.00 | 0.27 | 0.27 | 83 | 1014.2 |
| 20260831190319 | 74 | 152 | 2.0 | 8.0 | 0.01 | 0.27 | 0.27 | 84 | 1014.2 |
| 20260831185828 | 74 | 232 | 2.0 | 8.0 | 0.01 | 0.27 | 0.27 | 85 | 1014.3 |
| 20260831185331 | 74 | 173 | 2.0 | 4.0 | 0.01 | 0.27 | 0.27 | 85 | 1014.3 |
| 20260831184859 | 73 | 141 | 2.0 | 130.0 | 0.01 | 0.27 | 0.27 | 86 | 1014.3 |
| 20260831184321 | 72 | 222 | 71.0 | 136.0 | 0.01 | 0.27 | 0.27 | 85 | 1014.4 |
| 20260831183821 | 72 | 174 | 104.0 | 144.0 | 0.01 | 0.27 | 0.27 | 85 | 1014.6 |
| 20260831183330 | 72 | 213 | 129.0 | 137.0 | 0.02 | 0.27 | 0.27 | 85 | 1014.6 |
| 20260831182830 | 72 | 169 | 135.0 | 157.0 | 0.08 | 0.27 | 0.27 | 85 | 1014.6 |
| 20260831182312 | 72 | 360 | 132.0 | 138.0 | 0.13 | 0.27 | 0.27 | 85 | 1014.7 |
| 20260831181813 | 72 | 178 | 134.0 | 138.0 | 0.15 | 0.27 | 0.27 | 85 | 1014.7 |
| 20260831181343 | 72 | 175 | 146.0 | 154.0 | 0.15 | 0.27 | 0.27 | 85 | 1014.7 |
| 20260831180822 | 72 | 360 | 137.0 | 138.0 | 0.17 | 0.27 | 0.27 | 84 | 1014.9 |
| 20260831180330 | 72 | 217 | 134.0 | 136.0 | 0.17 | 0.26 | 0.26 | 84 | 1014.8 |
| 20260831175858 | 72 | 360 | 132.0 | 136.0 | 0.17 | 0.26 | 0.26 | 85 | 1014.6 |
| 20260831175340 | 72 | 183 | 132.0 | 152.0 | 0.17 | 0.26 | 0.26 | 84 | 1014.7 |
| 20260831174820 | 72 | 212 | 136.0 | 136.0 | 0.17 | 0.26 | 0.26 | 84 | 1014.7 |
| 20260831174328 | 72 | 213 | 134.0 | 136.0 | 0.17 | 0.26 | 0.26 | 84 | 1014.7 |
| 20260831173827 | 72 | 227 | 133.0 | 137.0 | 0.17 | 0.26 | 0.26 | 84 | 1014.6 |
| 20260831173335 | 72 | 360 | 136.0 | 137.0 | 0.16 | 0.25 | 0.25 | 83 | 1014.6 |
| 20260831172818 | 72 | 360 | 133.0 | 136.0 | 0.09 | 0.18 | 0.18 | 83 | 1014.9 |
| 20260831172337 | 72 | 153 | 131.0 | 144.0 | 0.04 | 0.13 | 0.13 | 82 | 1015.4 |
| 20260831171824 | 72 | 360 | 134.0 | 136.0 | 0.03 | 0.12 | 0.12 | 82 | 1015.5 |
| 20260831171326 | 73 | 192 | 138.0 | 136.0 | 0.03 | 0.12 | 0.12 | 81 | 1015.5 |
| 20260831170826 | 73 | 360 | 3.0 | 9.0 | 0.01 | 0.10 | 0.10 | 80 | 1015.6 |
| 20260831170334 | 74 | 254 | 1.0 | 14.0 | 0.00 | 0.09 | 0.09 | 79 | 1015.6 |
| 20260831165843 | 74 | 235 | 4.0 | 14.0 | 0.00 | 0.09 | 0.09 | 78 | 1015.9 |
| 20260831165324 | 75 | 253 | 3.0 | 10.0 | 0.00 | 0.09 | 0.09 | 78 | 1014.9 |
| 20260831164825 | 75 | 273 | 3.0 | 8.0 | 0.00 | 0.09 | 0.09 | 78 | 1014.6 |
| 20260831164334 | 75 | 220 | 3.0 | 8.0 | 0.00 | 0.09 | 0.09 | 79 | 1014.5 |
| 20260831163835 | 74 | 192 | 2.0 | 6.0 | 0.00 | 0.09 | 0.09 | 81 | 1014.1 |
| 20260831163321 | 74 | 154 | 2.0 | 4.0 | 0.00 | 0.09 | 0.09 | 81 | 1014.3 |
| 20260831162822 | 74 | 190 | 1.0 | 5.0 | 0.00 | 0.09 | 0.09 | 81 | 1014.7 |
| 20260831162324 | 74 | 215 | 2.0 | 6.0 | 0.00 | 0.09 | 0.09 | 81 | 1014.9 |
| 20260831161833 | 74 | 193 | 2.0 | 9.0 | 0.00 | 0.09 | 0.09 | 81 | 1014.8 |
| 20260831161314 | 73 | 170 | 2.0 | 9.0 | 0.00 | 0.09 | 0.09 | 82 | 1015.0 |
| 20260831160821 | 73 | 142 | 2.0 | 6.0 | 0.00 | 0.09 | 0.09 | 82 | 1015.0 |
| 20260831160324 | 73 | 108 | 2.0 | 6.0 | 0.00 | 0.09 | 0.09 | 81 | 1015.0 |
| 20260831155825 | 74 | 68 | 3.0 | 8.0 | 0.00 | 0.09 | 0.09 | 81 | 1015.0 |
| 20260831155335 | 74 | 139 | 2.0 | 8.0 | 0.00 | 0.09 | 0.09 | 81 | 1015.0 |
| 20260831154815 | 74 | 272 | 2.0 | 7.0 | 0.00 | 0.09 | 0.09 | 82 | 1014.9 |
| 20260831154317 | 73 | 22 | 2.0 | 6.0 | 0.00 | 0.09 | 0.09 | 82 | 1015.0 |
| 20260831153825 | 73 | 138 | 2.0 | 5.0 | 0.00 | 0.09 | 0.09 | 83 | 1015.1 |
| 20260831153326 | 73 | 81 | 2.0 | 5.0 | 0.00 | 0.09 | 0.09 | 84 | 1015.2 |
| 20260831152828 | 73 | 344 | 1.0 | 4.0 | 0.00 | 0.09 | 0.09 | 85 | 1015.1 |
| 20260831152336 | 73 | 121 | 1.0 | 5.0 | 0.00 | 0.09 | 0.09 | 85 | 1015.2 |
| 20260831151817 | 72 | 82 | 2.0 | 5.0 | 0.00 | 0.09 | 0.09 | 85 | 1015.5 |
| 20260831151319 | 72 | 136 | 1.0 | 5.0 | 0.00 | 0.09 | 0.09 | 85 | 1015.6 |
| 20260831150826 | 72 | 70 | 1.0 | 5.0 | 0.00 | 0.09 | 0.09 | 85 | 1015.6 |
| 20260831150328 | 72 | 84 | 2.0 | 5.0 | 0.00 | 0.09 | 0.09 | 85 | 1015.6 |
| 20260831145858 | 72 | 344 | 2.0 | 136.0 | 0.00 | 0.09 | 0.09 | 85 | 1015.8 |
| 20260831145318 | 72 | 63 | 23.0 | 138.0 | 0.00 | 0.09 | 0.09 | 86 | 1015.8 |
| 20260831144822 | 72 | 360 | 120.0 | 138.0 | 0.00 | 0.09 | 0.09 | 86 | 1015.8 |
| 20260831144330 | 71 | 5 | 138.0 | 139.0 | 0.00 | 0.09 | 0.09 | 86 | 1015.9 |
| 20260831143813 | 71 | 72 | 136.0 | 138.0 | 0.00 | 0.09 | 0.09 | 86 | 1015.8 |
| 20260831143314 | 71 | 61 | 135.0 | 139.0 | 0.00 | 0.09 | 0.09 | 86 | 1015.8 |
| 20260831142817 | 71 | 278 | 136.0 | 143.0 | 0.00 | 0.09 | 0.09 | 86 | 1015.7 |
| 20260831142325 | 71 | 59 | 136.0 | 138.0 | 0.00 | 0.09 | 0.09 | 86 | 1015.6 |
| 20260831141826 | 71 | 55 | 137.0 | 139.0 | 0.00 | 0.09 | 0.09 | 86 | 1015.5 |
| 20260831141329 | 71 | 66 | 138.0 | 139.0 | 0.00 | 0.09 | 0.09 | 86 | 1015.7 |
| 20260831140835 | 71 | 31 | 136.0 | 138.0 | 0.00 | 0.09 | 0.09 | 86 | 1015.8 |
| 20260831140339 | 71 | 57 | 136.0 | 137.0 | 0.00 | 0.09 | 0.09 | 86 | 1015.7 |
| 20260831135825 | 71 | 266 | 137.0 | 145.0 | 0.00 | 0.09 | 0.09 | 86 | 1015.9 |
| 20260831135347 | 71 | 46 | 136.0 | 138.0 | 0.01 | 0.09 | 0.09 | 86 | 1015.9 |
| 20260831134836 | 71 | 73 | 136.0 | 137.0 | 0.01 | 0.09 | 0.09 | 86 | 1015.8 |
| 20260831134318 | 71 | 360 | 136.0 | 137.0 | 0.01 | 0.09 | 0.09 | 86 | 1015.9 |
| 20260831133825 | 71 | 350 | 136.0 | 137.0 | 0.01 | 0.09 | 0.09 | 86 | 1015.8 |
| 20260831133327 | 71 | 34 | 136.0 | 137.0 | 0.02 | 0.09 | 0.09 | 86 | 1015.7 |
| 20260831132828 | 71 | 83 | 137.0 | 138.0 | 0.03 | 0.09 | 0.09 | 86 | 1015.8 |
| 20260831132336 | 71 | 76 | 136.0 | 137.0 | 0.03 | 0.09 | 0.09 | 86 | 1015.8 |
| 20260831131818 | 71 | 61 | 136.0 | 137.0 | 0.03 | 0.09 | 0.09 | 86 | 1015.6 |
| 20260831131321 | 71 | 69 | 136.0 | 137.0 | 0.04 | 0.09 | 0.09 | 86 | 1015.8 |
| 20260831130827 | 71 | 37 | 136.0 | 137.0 | 0.05 | 0.09 | 0.09 | 86 | 1015.9 |
| 20260831130328 | 71 | 70 | 136.0 | 136.0 | 0.05 | 0.09 | 0.09 | 86 | 1015.8 |
| 20260831125830 | 71 | 65 | 137.0 | 138.0 | 0.05 | 0.09 | 0.09 | 86 | 1015.7 |
| 20260831125313 | 70 | 74 | 136.0 | 137.0 | 0.04 | 0.08 | 0.08 | 86 | 1015.6 |
| 20260831124844 | 70 | 76 | 136.0 | 139.0 | 0.04 | 0.08 | 0.08 | 86 | 1015.9 |
| 20260831124332 | 71 | 96 | 139.0 | 139.0 | 0.04 | 0.08 | 0.08 | 86 | 1015.9 |
| 20260831123812 | 71 | 171 | 141.0 | 144.0 | 0.04 | 0.08 | 0.08 | 86 | 1016.0 |
| 20260831123336 | 71 | 61 | 137.0 | 137.0 | 0.04 | 0.07 | 0.07 | 86 | 1016.3 |
| 20260831122846 | 71 | 360 | 133.0 | 134.0 | 0.04 | 0.06 | 0.06 | 86 | 1016.4 |
| 20260831122326 | 71 | 360 | 137.0 | 152.0 | 0.05 | 0.06 | 0.06 | 86 | 1016.1 |
| 20260831121815 | 71 | 10 | 139.0 | 138.0 | 0.06 | 0.06 | 0.06 | 86 | 1016.1 |
| 20260831121315 | 71 | 360 | 133.0 | 138.0 | 0.05 | 0.05 | 0.05 | 86 | 1016.6 |
| 20260831120843 | 71 | 198 | 132.0 | 136.0 | 0.04 | 0.05 | 0.04 | 85 | 1016.8 |
| 20260831120323 | 71 | 325 | 136.0 | 137.0 | 0.04 | 0.05 | 0.04 | 85 | 1016.3 |
| 20260831115825 | 71 | 20 | 136.0 | 136.0 | 0.04 | 0.05 | 0.04 | 85 | 1016.3 |
| 20260831115333 | 71 | 61 | 135.0 | 137.0 | 0.04 | 0.05 | 0.04 | 85 | 1016.2 |
| 20260831114815 | 71 | 304 | 135.0 | 137.0 | 0.04 | 0.05 | 0.04 | 85 | 1016.2 |
| 20260831114316 | 71 | 61 | 133.0 | 137.0 | 0.04 | 0.05 | 0.04 | 85 | 1016.1 |
| 20260831113844 | 71 | 52 | 137.0 | 138.0 | 0.04 | 0.05 | 0.04 | 85 | 1016.0 |
| 20260831113324 | 71 | 74 | 137.0 | 139.0 | 0.03 | 0.04 | 0.03 | 85 | 1016.5 |
| 20260831112832 | 71 | 61 | 135.0 | 136.0 | 0.02 | 0.03 | 0.02 | 85 | 1016.9 |
| 20260831112312 | 71 | 201 | 134.0 | 138.0 | 0.00 | 0.01 | 0.00 | 86 | 1017.3 |
| 20260831111813 | 71 | 360 | 2.0 | 4.0 | 0.00 | 0.01 | 0.00 | 86 | 1017.1 |
| 20260831111324 | 71 | 217 | 2.0 | 4.0 | 0.00 | 0.01 | 0.00 | 86 | 1016.6 |